This is the latest recevied weather packets stored in our database for station/object LKLN. If no packets are shown the sender has not sent any weather packets the latest 10 day(s).
| Time | Temp. | Humidity | Pressure | Rain* | Wind** | Luminosity | Snow |
|---|---|---|---|---|---|---|---|
| 1788015672 | 22.78° C | 46% | 1016 hPa | - | - | - | - |
| 1788013870 | 22.78° C | 46% | 1016 hPa | - | - | - | - |
| 1788012071 | 22.78° C | 46% | 1016 hPa | - | - | - | - |
| 1788010263 | 23.89° C | 44% | 1016 hPa | - | - | - | - |
| 1788008472 | 22.78° C | 49% | 1017 hPa | - | - | - | - |
| 1788006670 | 22.22° C | 53% | 1017 hPa | - | - | - | - |
| 1788004877 | 23.89° C | 47% | 1017 hPa | - | - | - | - |
| 1788003070 | 22.22° C | 53% | 1017 hPa | - | - | - | - |
| 1788001271 | 21.11° C | 52% | 1017 hPa | - | - | - | - |
| 1787999463 | 21.11° C | 56% | 1018 hPa | - | - | - | - |
| 1787997665 | 20° C | 64% | 1018 hPa | - | - | - | - |
| 1787996589 | 18.89° C | 68% | 1018 hPa | - | - | - | - |
| 1787986864 | 17.22° C | 82% | 1017 hPa | - | - | - | - |
| 1787985069 | 17.22° C | 82% | 1017 hPa | - | - | - | - |
| 1787983264 | 16.11° C | 87% | 1017 hPa | - | - | - | - |
| 1787981469 | 16.11° C | 87% | 1017 hPa | - | - | - | - |
| 1787979671 | 15° C | 93% | 1017 hPa | - | - | - | - |
| 1787977870 | 15° C | 93% | 1016 hPa | - | - | - | - |
| 1787976071 | 15° C | 93% | 1016 hPa | - | - | - | - |
| 1787974270 | 15° C | 93% | 1016 hPa | - | - | - | - |
| 1787972472 | 16.11° C | 87% | 1016 hPa | - | - | - | - |
| 1787970670 | 16.11° C | 93% | 1016 hPa | - | - | - | - |
| 1787968873 | 16.11° C | 93% | 1016 hPa | - | - | - | - |
| 1787967484 | 16.11° C | 93% | 1016 hPa | - | - | - | - |
| 1787967070 | 16.11° C | 93% | 1016 hPa | - | - | - | - |
* Rain since midnight (hover to see other rain measurements)
** Current wind speed in m/s (hover to see current wind gust speed)